OpenBCM V1.13 (Linux)

Packet Radio Mailbox

DB0FHN

[JN59NK Nuernberg]

 Login: GUEST





  
UA9FBV > KEPS     17.12.04 07:19l 165 Lines 7769 Bytes #999 (0) @ AMSAT
BID : ORB04351.N
Read: GUEST DL7NDR
Subj: 2Line Orbital Elements 04351.AMSAT
Path: DB0FHN<DB0MRW<DB0WUE<DK0WUE<DB0RES<ER3KAZ<UA9FBV
Sent: 041217/0514Z @:UA9FBV.PRM.RUS.AS #:13135 [Perm] GATEWAY $:ORB04351.N
From: UA9FBV@UA9FBV.PRM.RUS.AS
To  : KEPS@AMSAT


HR AMSAT ORBITAL ELEMENTS FOR AMATEUR SATELLITES IN NASA FORMAT
FROM WA5QGD FORT WORTH,TX December 16, 2004
SEND SUBSCRIBE/UNSUBSCRIBE TO majordomo@amsat.org ONLY
BID: ORB04351.N

DECODE 2-LINE ELSETS WITH THE FOLLOWING KEY:
1 AAAAAU 00  0  0 BBBBB.BBBBBBBB  .CCCCCCCC  00000-0  00000-0 0  DDDZ
2 AAAAA EEE.EEEE FFF.FFFF GGGGGGG HHH.HHHH III.IIII JJ.JJJJJJJJKKKKKZ
KEY: A-CATALOGNUM B-EPOCHTIME C-DECAY D-ELSETNUM E-INCLINATION F-RAAN
G-ECCENTRICITY H-ARGPERIGEE I-MNANOM J-MNMOTION K-ORBITNUM Z-CHECKSUM

TO ALL RADIO AMATEURS BT

AO-07
1 07530U 74089B   04350.75679783 -.00000029  00000-0  10000-3 0  3605
2 07530 101.6585  34.4763 0011992 230.5495 129.4516 12.53569950376661
AO-10
1 14129U 83058B   04350.23971781 -.00000171  00000-0  10000-3 0 01324
2 14129 026.8825 056.6063 6032206 148.9441 267.6572 02.05870105161748
UO-11
1 14781U 84021B   04351.29515812  .00000586  00000-0  86551-4 0  6627
2 14781  98.1917 339.3080 0008550 221.5907 138.4655 14.79106513114766
RS-10/11
1 18129U 87054A   04351.14981417  .00000058  00000-0  46429-4 0  5643
2 18129  82.9254  13.5304 0011455 167.4192 192.7248 13.72750671875962
FO-20
1 20480U 90013C   04351.49243987 -.00000056  00000-0 -45154-4 0  7697
2 20480  99.0174 194.4488 0539879 293.8197  60.7202 12.83343741696064
RS-12/13
1 21089U 91007A   04351.08370232  .00000030  00000-0  15389-4 0  7884
2 21089  82.9242  46.7794 0027947 227.5687 132.3105 13.74444850695344
RS-15
1 23439U 94085A   04350.63535789 -.00000039  00000-0  10597-3 0 08576
2 23439 064.8200 044.3992 0158444 348.6207 011.1153 11.27550349410699
FO-29
1 24278U 96046B   04350.80207225 -.00000023  00000-0  15596-4 0  8485
2 24278  98.5735  58.8990 0350015 291.5051  64.9107 13.52906306411398
SO-33
1 25509U 98061B   04350.39060106  .00000049  00000-0 -14555-5 0 02602
2 25509 031.4322 351.4404 0356618 359.5465 000.4780 14.27939177320537
AO-40
1 26609U 00072B   04350.99234882 -.00000135  00000-0  10000-3 0  4718
2 26609   9.1015 330.0211 7958960 348.2286   0.4765  1.25586278 18957
UO-14
1 20437U 90005B   04351.05035686  .00000025  00000-0  24593-4 0  6638
2 20437  98.1992   4.9737 0011273  24.2914 335.8789 14.31388367777831
AO-16
1 20439U 90005D   04351.64757603  .00000089  00000-0  48737-4 0  3526
2 20439  98.2266  20.4948 0011846  28.5693 331.6127 14.31648996777974
WO-18
1 20441U 90005F   04350.96285776  .00000057  00000-0  36810-4 0  5425
2 20441  98.2399  24.0228 0012356  32.0618 328.1316 14.31723357777931
LO-19
1 20442U 90005G   04351.56187482  .00000054  00000-0  35477-4 0  2789
2 20442  98.2493  28.8104 0012739  28.7498 331.4386 14.31895470778082
UO-22
1 21575U 91050B   04351.39058688  .00000111  00000-0  48911-4 0  2808
2 21575  98.2208 317.8832 0006386 281.6603  78.3879 14.39445551704208
KO-23
1 22077U 92052B   04351.36923705 -.00000037  00000-0  10000-3 0  3409
2 22077  66.0862 169.3175 0012927 298.9492  61.0237 12.86428038580075
AO-27
1 22825U 93061C   04350.97065204 -.00000114  00000-0 -29004-4 0   148
2 22825  98.2459 350.2510 0009470  87.3357 272.8910 14.29102810585057
IO-26
1 22826U 93061D   04351.87298414  .00000049  00000-0  35301-4 0  6834
2 22826  98.2411 352.3938 0009962  80.7852 279.4458 14.29342180585243
KO-25
1 22828U 93061F   04351.00052972 -.00000024  00000-0  63499-5 0  9464
2 22828  98.2339 351.7944 0010926  63.8988 296.3311 14.29658923553345
TO-31
1 25396U 98043C   04351.60836226 -.00000043  00000-0  00000 0 0  1286
2 25396  98.5560  58.1356 0002577  15.8563 344.2707 14.23649140334435
GO-32
1 25397U 98043D   04350.84374265  .00000101  00000-0  63698-4 0  6266
2 25397  98.5463  55.2509 0001593  47.3379 312.7933 14.23063753334259
UO-36
1 25693U 99021A   04351.64102566  .00000037  00000-0  24643-4 0  7406
2 25693  64.5586 124.2935 0041312 235.0121 124.7078 14.78436642304834
SO-41
1 26545U 00057A   04350.59291204  .00000135  00000-0  36733-4 0  9522
2 26545  64.5569 143.1500 0030071 336.9609  23.0095 14.79960302227753
MO-46
1 26548U 00057D   04351.60131377  .00000221  00000-0  45573-4 0   554
2 26548  64.5566 124.9279 0029515 324.3475  35.5635 14.82544844228219
SO-42
1 26549U 00057E   04350.71458589  .00000279  00000-0  56895-4 0   117
2 26549  64.5556 150.4050 0030225 346.2858  13.7421 14.78848471227621
NO-44
1 26931U 01043C   04351.13264700 -.00000010  00000-0  28434-4 0  9239
2 26931  67.0543 339.2414 0007403 268.5252  91.4978 14.29347591167601
AO-49
1 27605U 02058A   04351.31087580  .00000186  00000-0  49846-4 0  6111
2 27605  64.5594 331.3334 0085565 275.7998  83.3322 14.72000799106930
SO-50
1 27607U 02058C   04350.46683159  .00000414  00000-0  86035-4 0  5936
2 27607  64.5589 338.5227 0086542 274.9091  84.2139 14.70829088106717
AO-51
1 28375U 04025K   04351.23057755  .00000139  00000-0  54840-4 0  1342
2 28375  98.2397  54.8049 0085226  63.6908 297.2999 14.40419992 24275
NOAA-10
1 16969U 86073A   04351.28439021 -.00000056  00000-0 -46014-5 0  5187
2 16969  98.7616 350.6371 0011673 307.6867  52.3253 14.27230406949001
NOAA-11
1 19531U 88089A   04351.33332512 -.00000088  00000-0 -22637-4 0  3768
2 19531  98.8580  73.9405 0012563 108.4947 251.7563 14.14743455837079
NOAA-12
1 21263U 91032A   04351.81772797  .00000066  00000-0  28029-4 0  8659
2 21263  98.6860 337.7572 0012056 237.8695 122.1797 14.25437575706309
MET-3/5
1 21655U 91056A   04351.16578892  .00000051  00000-0  10000-3 0  6941
2 21655  82.5558 287.9443 0013203 336.9608  23.0914 13.16999477641225
MET-2/21
1 22782U 93055A   04351.30882722 -.00000027  00000-0 -37405-4 0   814
2 22782  82.5500  46.0584 0020882 276.4944  83.3811 13.83576640570285
OKEAN-4
1 23317U 94066A   04351.18567329  .00000584  00000-0  70359-4 0  4984
2 23317  82.5411  68.0036 0023146  22.8198 337.4066 14.82004693548809
NOAA-14
1 23455U 94089A   04351.80978671  .00000093  00000-0  49247-4 0  3994
2 23455  99.1177  30.9300 0009615 150.5877 209.6307 14.13518741513825
SICH-1
1 23657U 95046A   04350.88083513  .00000461  00000-0  56229-4 0  3011
2 23657  82.5295 209.0991 0024596   8.5099 351.6501 14.81026438500826
NOAA-15
1 25338U 98030A   04351.86685443  .00000080  00000-0  34458-4 0  8443
2 25338  98.5166 359.7384 0010747 166.6597 193.5344 14.24475022342803
RESURS
1 25394U 98043A   04350.96866370  .00000024  00000-0  29197-4 0 09745
2 25394 098.5634 059.1962 0001309 009.0314 351.0888 14.24040814334373
FENGYUN1
1 25730U 99025A   04350.86118742  .00000173  00000-0  11770-3 0  3018
2 25730  98.6046 354.0056 0013774 264.2165  95.7418 14.11785502288649
OKEAN-0
1 25860U 99039A   04350.85060961  .00000218  00000-0  41081-4 0 03058
2 25860 097.7773 018.6237 0002124 089.0321 271.1132 14.73170741291017
NOAA-16
1 26536U 00055A   04351.85125241  .00000172  00000-0  93698-4 0  1499
2 26536  98.9900 303.5002 0009939 219.9699 140.1229 14.12187482218320
NOAA-17
1 27453U 02032A   04351.83642662  .00000183  00000-0  80395-4 0  1700
2 27453  98.6829  61.9480 0011212 221.6087 138.4719 14.23608811128891
HUBBLE
1 20580U 90037B   04351.43847261  .00000995  00000-0  66031-4 0  2291
2 20580  28.4696  19.3264 0003687 131.3478 228.7422 14.99494291602780
UARS
1 21701U 91063B   04351.11803458  .00000321  00000-0  41900-4 0  3340
2 21701  56.9785 212.0957 0005488  80.4273 279.7390 15.03711540725950
PO-34
1 25520U 98064B   04351.51278574  .00001142  00000-0  48064-4 0   729
2 25520  28.4598  93.3146 0005388  40.6573 319.4420 15.15977119338831
ISS
1 25544U 98067A   04351.90774463  .00016456  00000-0  13070-3 0  3780
2 25544  51.6387 113.0548 0004456 113.6289 343.9592 15.71404311347021
OO-38
1 26063U 00004C   04350.56342947  .00000058  00000-0  40233-4 0  2355
2 26063 100.2239 170.8172 0036758 211.5697 148.3280 14.35689856255948
NO-45
1 26932U 01043D   04350.83524777  .00000266  00000-0  13652-3 0  9180
2 26932  67.0597 339.6552 0008084 281.4130  78.6069 14.29461982167590


Read previous mail | Read next mail


 15.09.2026 03:28:24lGo back Go up